This demonstration page uses our WeatherBlox Daily Observations layout. Learn more.

Left ArrowRight Arrow

Hourly Observations for June 16, 2021

Temp ( °F °C ) Dew Point ( °F °C ) Humidity (%) Winds ( mph kmh ) Pressure ( in mb ) Visibility ( mi km ) Precip ( " mm )
4:53 am 04:53 Mostly Clear 59 15 38 3.3 46 46 W 18 30 30.03 1017 10 16 N/A
5:53 am 05:53 Sunny 56 13.3 37 2.8 49 49 WSW 15 24 30.06 1018 10 16 N/A
6:53 am 06:53 Sunny 60 15.6 35 1.7 39 39 W 23 37 30.07 1018 10 16 N/A
7:53 am 07:53 Sunny 63 17.2 36 2.2 37 37 W 30 48 30.08 1019 10 16 N/A
8:53 am 08:53 Sunny 66 18.9 35 1.7 32 32 W 26 43 30.09 1019 10 16 N/A
9:53 am 09:53 Sunny 68 20 35 1.7 30 30 W 24 39 30.10 1019 10 16 N/A
10:53 am 10:53 Sunny 71 21.7 34 1.1 26 26 W 23 37 30.09 1019 10 16 N/A
11:53 am 11:53 Sunny 73 22.8 33 0.6 23 23 W 20 31 30.08 1019 10 16 N/A
12:53 pm 12:53 Sunny 76 24.4 30 -1.1 18 18 W 24 39 30.07 1018 10 16 N/A
1:53 pm 13:53 Sunny 78 25.6 30 -1.1 17 17 W 21 33 30.05 1018 10 16 N/A
2:53 pm 14:53 Sunny 78 25.6 27 -2.8 15 15 W 15 24 30.04 1017 10 16 N/A
3:53 pm 15:53 Sunny 80 26.7 25 -3.9 13 13 W 20 31 30.01 1016 10 16 N/A
4:53 pm 16:53 Sunny 80 26.7 25 -3.9 13 13 W 18 30 30.01 1016 10 16 N/A
5:53 pm 17:53 Sunny 80 26.7 25 -3.9 13 13 W 20 31 30.00 1016 10 16 N/A
6:53 pm 18:53 Sunny 78 25.6 26 -3.3 15 15 W 18 30 29.99 1016 10 16 N/A
7:53 pm 19:53 Sunny 75 23.9 27 -2.8 17 17 W 18 30 29.98 1015 10 16 N/A
8:53 pm 20:53 Sunny 70 21.1 29 -1.7 22 22 W 9 15 29.99 1016 10 16 N/A
9:53 pm 21:53 Clear 57 13.9 34 1.1 42 42 NNW 3 6 30.01 1016 10 16 N/A
10:53 pm 22:53 Clear 54 12.2 35 1.7 49 49 SW 6 9 30.03 1017 10 16 N/A
11:53 pm 23:53 Clear 52 11.1 35 1.7 53 53 S 9 15 30.03 1017 10 16 N/A

Powered by AerisWeather